TIANLIAN 2-02

Last updated on Mon Sep 07 2026 00:03:01 GMT+0000 (Coordinated Universal Time)

1 50005U 21124A 26249.64027267 -.00000031 00000+0 00000+0 0 9990 2 50005 1.0054 84.7140 0003513 152.3511 150.1312 1.00271956 17435
UTC large
Height (km)
Speed (km/s)
/
Latitude / Longitude
Inclination (degrees)
Orbital Period (minutes)
Azimuth
Elevation
Range (km)
Doppler Factor

Next 0 passes for location: London (51.5072 / 0.1276)

No passes found over London.